Location: Chevoux
(46.3801°N, 4.9476°E)
Time: 07:53:37
(UTC+00:00)

X-37B - Pass Details

Date: 26 April 2021
Orbit: 386 x 389 km, 45.0° (Epoch: 08 May)

Event Time Altitude Azimuth Distance (km) Brightness Sun altitude
Exits shadow 01:58:45 21° 104° (ESE) 930 2.7 -22.2°
Drops below altitude 10° 01:59:59 10° 100° (E) 1,414 3.7 -22.1°
Sets 02:02:03 0° 98° (E) 2,268 4.9 -21.9°
